Retour au catalogue

STARLINK-34876

ActifCommunicationsSSO
NORAD 65400·PAYLOAD·🇺🇸 United States

Lancé Aug 30, 2025 depuis Vandenberg Space Force Base

Loading…

Prochains Passages (prochaines 24 heures)

TLE

FraisSource: CelesTrak SupGP

Époque: Sep 15, 2026, 03:49 UTC

1 65400C 25191X   26258.15951389 -.00005877  00000+0 -18232-3 0  2582
2 65400  97.2842 124.2540 0001873  95.8177 106.4794 15.33461974    18

Suivez STARLINK-34876 en temps réel avec AllMySat

Download on the App Store